Satellite: NOAA-10
Catalog number: 16969
Epoch time:      12067.94995305
Element set:    0848
Inclination:      098.5938 deg
RA of node:       098.7555 deg
Eccentricity:    0.0012559
Arg of perigee:   167.0817 deg
Mean anomaly:     193.0686 deg
Mean motion:   14.27531687 rev/day
Decay rate:        9.7e-07 rev/day^2
Epoch rev:           32542
Checksum:              365

Satellite: NOAA-11
Catalog number: 19531
Epoch time:      12067.81329213
Element set:    0844
Inclination:      098.7345 deg
RA of node:       155.0953 deg
Eccentricity:    0.0011393
Arg of perigee:   149.5385 deg
Mean anomaly:     210.6464 deg
Mean motion:   14.14954140 rev/day
Decay rate:      -1.87e-06 rev/day^2
Epoch rev:           21017
Checksum:              292

Satellite: NOAA-12
Catalog number: 21263
Epoch time:      12067.97237122
Element set:    0343
Inclination:      098.7369 deg
RA of node:       090.0773 deg
Eccentricity:    0.0014448
Arg of perigee:   132.8509 deg
Mean anomaly:     227.3889 deg
Mean motion:   14.25480865 rev/day
Decay rate:        1.5e-07 rev/day^2
Epoch rev:           08213
Checksum:              306

Satellite: MET-3/5
Catalog number: 21655
Epoch time:      12067.88355211
Element set:    0354
Inclination:      082.5540 deg
RA of node:       223.7400 deg
Eccentricity:    0.0012795
Arg of perigee:   211.5409 deg
Mean anomaly:     148.4941 deg
Mean motion:   13.17033826 rev/day
Decay rate:        5.1e-07 rev/day^2
Epoch rev:           98856
Checksum:              294

Satellite: MET-2/21
Catalog number: 22782
Epoch time:      12067.70303292
Element set:    0358
Inclination:      082.5468 deg
RA of node:       113.0403 deg
Eccentricity:    0.0024200
Arg of perigee:   077.8504 deg
Mean anomaly:     282.5355 deg
Mean motion:   13.83676283 rev/day
Decay rate:        5.0e-08 rev/day^2
Epoch rev:           93513
Checksum:              283

Satellite: OKEAN-4
Catalog number: 23317
Epoch time:      12068.88301268
Element set:     825
Inclination:      082.5410 deg
RA of node:       124.9688 deg
Eccentricity:    0.0020585
Arg of perigee:   327.3845 deg
Mean anomaly:     032.6098 deg
Mean motion:   14.83617459 rev/day
Decay rate:      1.045e-05 rev/day^2
Epoch rev:           93993
Checksum:              326

Satellite: NOAA-14
Catalog number: 23455
Epoch time:      12067.92203529
Element set:    0827
Inclination:      098.8325 deg
RA of node:       152.6841 deg
Eccentricity:    0.0008568
Arg of perigee:   246.8045 deg
Mean anomaly:     113.2223 deg
Mean motion:   14.13880495 rev/day
Decay rate:        5.8e-07 rev/day^2
Epoch rev:           88648
Checksum:              322

Satellite: NOAA-15
Catalog number: 25338
Epoch time:      12067.60000508
Element set:    0177
Inclination:      098.6826 deg
RA of node:       055.5059 deg
Eccentricity:    0.0011363
Arg of perigee:   047.3467 deg
Mean anomaly:     312.8659 deg
Mean motion:   14.25036603 rev/day
Decay rate:        5.8e-07 rev/day^2
Epoch rev:           71838
Checksum:              305

Satellite: RESURS
Catalog number: 25394
Epoch time:      12067.95934195
Element set:    0041
Inclination:      098.3135 deg
RA of node:       061.5586 deg
Eccentricity:    0.0001420
Arg of perigee:   137.7572 deg
Mean anomaly:     222.3722 deg
Mean motion:   14.24276004 rev/day
Decay rate:        3.2e-07 rev/day^2
Epoch rev:           70999
Checksum:              287

Satellite: FENGYUN1
Catalog number: 25730
Epoch time:      12067.91247069
Element set:     553
Inclination:      098.8406 deg
RA of node:       028.7027 deg
Eccentricity:    0.0019364
Arg of perigee:   297.8250 deg
Mean anomaly:     062.0953 deg
Mean motion:   14.09291711 rev/day
Decay rate:      1.353e-05 rev/day^2
Epoch rev:           66034
Checksum:              301

Satellite: OKEAN-0
Catalog number: 25860
Epoch time:      12067.92156399
Element set:    0579
Inclination:      097.9234 deg
RA of node:       032.7138 deg
Eccentricity:    0.0000705
Arg of perigee:   095.4296 deg
Mean anomaly:     264.6993 deg
Mean motion:   14.74105007 rev/day
Decay rate:       5.28e-06 rev/day^2
Epoch rev:           67965
Checksum:              333

Satellite: NOAA-16
Catalog number: 26536
Epoch time:      12067.61716395
Element set:    0661
Inclination:      099.1085 deg
RA of node:       108.1124 deg
Eccentricity:    0.0010609
Arg of perigee:   013.9333 deg
Mean anomaly:     346.2132 deg
Mean motion:   14.12709113 rev/day
Decay rate:      -1.41e-06 rev/day^2
Epoch rev:           59069
Checksum:              279

Satellite: NOAA-17
Catalog number: 27453
Epoch time:      12067.87123964
Element set:    0626
Inclination:      098.3486 deg
RA of node:       099.9787 deg
Eccentricity:    0.0012724
Arg of perigee:   094.2260 deg
Mean anomaly:     266.0361 deg
Mean motion:   14.24399848 rev/day
Decay rate:        8.0e-08 rev/day^2
Epoch rev:           50433
Checksum:              336

Satellite: NOAA-18
Catalog number: 28654
Epoch time:      12067.92157822
Element set:    0103
Inclination:      099.0345 deg
RA of node:       025.2302 deg
Eccentricity:    0.0015162
Arg of perigee:   080.2969 deg
Mean anomaly:     279.9895 deg
Mean motion:   14.11615553 rev/day
Decay rate:       3.77e-06 rev/day^2
Epoch rev:           35027
Checksum:              308

